Погода в Сигишоаре

Румыния     46°13′15″N   24°47′53″E
темп.,
°C
ветер,
м/с
пор.,
м/с
влажн.,
%
обл.,
%
осадки,
мм/ч
давл.,
гПа
погр.,
м
6 марта, сб
сб623:00+5ссз698897 0.3 1017523
02:00+1сз599197 0.4 1019573
05:00−1сз5989100 1.1 1021544
08:00−2сз6980100 1.4 1025543
11:00+1сз5669100 0.1 1027846
14:00+3сз6646100 0.3 10271552
17:00+2сз564165 0.0 10281676
20:00−1сз385532 0.0 1031250
7 марта, вс
вс723:00−2з22660 0.0 103241
02:00−3юз22690 0.0 103236
05:00−3зюз11660 0.0 103121
08:00−2ююз11580 0.0 103085
11:00+2з33390 0.0 10281080
14:00+4зсз34330 0.0 10251284
17:00+4сз23340 0.0 10221049
20:000сз11460 0.0 102321
8 марта, пн
пн823:00−1с01530 0.0 102221
02:00−2ююз01580 0.0 102121
05:00−2юз016210 0.0 101921
08:00−1зюз015821 0.0 101942
11:00+3зсз1243100 0.0 1017733
14:00+5сз333683 0.0 10161264
17:00+5сз343821 0.0 10161515
20:000св126011 0.0 101821
9 марта, вт
вт923:000з11630 0.0 102021
02:00−1зюз11690 0.0 102021
05:00−2зсз117877 0.0 102121
08:00−1всв007439 0.0 102266
11:00+4с015241 0.0 1022825
14:00+5с114554 0.0 10211385
17:00+5с114497 0.0 10211264
20:00+3юв235999 0.0 1023112
10 марта, ср
ср1023:000вюв2393100 0.1 1024181
02:000ююв1196100 0.7 1024107
05:00+1сз2388100 0.3 1024353
08:00−1зсз237373 0.3 1024234
11:00+3сз35360 0.0 10241100
14:00+5зсз35260 0.0 10221539
17:00+5зсз34300 0.0 10221516
20:00+1с11470 0.0 102322